Regional Weather Roundup
Issued by NWS

Home | Current Version | Previous Version | Graphics & Text | Print | Product List | Glossary Off
Versions: 1 2 3 4 5 6 7 8 9 10 11 12 13 14 15 16 17 18 19 20 21 22 23 24 25 26 27 28 29 30 31 32 33 34 35 36 37 38 39 40 41 42 43 44 45 46 47 48 49 50

000
ASUS43 KLSX 230359
RWRMO

WEATHER SUMMARY FOR MISSOURI
NATIONAL WEATHER SERVICE SPRINGFIELD MO
1100 PM CDT TUE JUL 22 2014

NOTE: "FAIR" INDICATES FEW OR NO CLOUDS BELOW 12,000 FEET WITH NO
       SIGNIFICANT WEATHER AND/OR OBSTRUCTIONS TO VISIBILITY.
       CURRENT SKY AND/OR WEATHER CONDITIONS ARE NOT AVAILABLE FOR
       CHILLICOTHE AND FARMINGTON.

MOZ001>031-035>038-043-044-053-054-230500-
...NORTHERN AND WESTERN MISSOURI...

CITY           SKY/WX    TMP DP  RH WIND       PRES   REMARKS
KANSAS CTY INT CLEAR     86  77  74 NE3       30.05S HX  97
KANSAS C DTWN  CLEAR     88  77  69 CALM      30.02S HX 100
LEE`S SUMMIT   CLEAR     86  76  71 CALM      30.05S HX  96
ST JOSEPH      PTCLDY    82  73  74 N15       30.08R
CHILLICOTHE      N/A     85  78  80 N5        30.05R HX  96
KIRKSVILLE     CLOUDY    81  79  94 N6        30.05R HX  90

$$
MOZ066>068-077>081-088>096-101>105-230500-
...SOUTHWEST MISSOURI...

CITY           SKY/WX    TMP DP  RH WIND       PRES   REMARKS
SPRINGFIELD    CLEAR     81  76  84 CALM      30.08R
JOPLIN         CLEAR     84  75  74 SW9       30.07R HX  92

$$
MOZ032>034-039>042-045>050-055>058-069>072-230500-
...CENTRAL MISSOURI...

CITY           SKY/WX    TMP DP  RH WIND       PRES   REMARKS
COLUMBIA       CLEAR     79  78  97 SW5       30.03F
JEFFERSON CITY CLEAR     83  78  85 CALM      30.01F HX  93
ROLLA          CLEAR     80  72  76 SW9       30.05S
SEDALIA        CLEAR     83  77  82 SE3       30.05S HAZE    HX  92
WHITEMAN AFB   CLEAR     81  77  89 SE5       30.04R
OSAGE BEACH    CLEAR     81  75  83 CALM      30.05S

$$
MOZ051-052-059>065-230500-
...EAST CENTRAL MISSOURI...

CITY           SKY/WX    TMP DP  RH WIND       PRES   REMARKS
ST LOUIS INTL  CLOUDY    85  72  65 S7        30.02S HX  91
SPIRIT OF STL  MOCLDY    83  73  72 S7        29.99F
ST CHARLES     CLOUDY    78  74  87 SE5       30.00F

$$
MOZ072>076-082>087-097>100-106>115-230500-
...SOUTH CENTRAL AND SOUTHEAST MISSOURI...

CITY           SKY/WX    TMP DP  RH WIND       PRES   REMARKS
CAPE GIRARDEAU CLEAR     72  69  90 S3        30.05F
FARMINGTON     CLEAR     73  68  83 S5        30.09S
POPLAR BLUFF   CLEAR     71  67  87 CALM      30.05R FOG
WEST PLAINS    PTCLDY    76  70  82 CALM      30.10S

$$



USA.gov is the U.S. government's official web portal to all federal, state and local government web resources and services.